• în România
  • Lista ţărilor
  • Pe 7 zile
  • Temperatura apei
  • Hartă satelitară
  • Meteo pe hartă
  • Widget-uri
  • user-avatar
    Intrare

    Meteo pe oră la Oran

    Astăzi, 27 Iunie, Marţi

    Timp Temperatura Precipitaţii Vânt Presiune Umiditate
    00:00 +30°C° 0 mm 2 m/s 748 mmHg 48%
    01:00 +30°C° 0,1 mm 3 m/s 748 mmHg 48%
    02:00 +29°C° 0,1 mm 3 m/s 748 mmHg 49%
    03:00 +29°C° 0,1 mm 3 m/s 748 mmHg 50%
    04:00 +29°C° 0,1 mm 3 m/s 748 mmHg 48%
    05:00 +29°C° 0,1 mm 3 m/s 748 mmHg 47%
    06:00 +30°C° 0,1 mm 3 m/s 748 mmHg 45%
    07:00 +32°C° 0 mm 4 m/s 748 mmHg 41%
    08:00 +34°C° 0 mm 4 m/s 748 mmHg 37%
    09:00 +36°C° 0 mm 5 m/s 748 mmHg 32%
    10:00 +36°C° 0,1 mm 5 m/s 748 mmHg 32%
    11:00 +38°C° 0,1 mm 6 m/s 747 mmHg 31%
    12:00 +38°C° 0,1 mm 6 m/s 747 mmHg 30%
    13:00 +38°C° 0,1 mm 6 m/s 747 mmHg 31%
    14:00 +36°C° 0,1 mm 7 m/s 747 mmHg 31%
    15:00 +36°C° 0,1 mm 7 m/s 747 mmHg 31%
    16:00 +35°C° 0,2 mm 7 m/s 746 mmHg 32%
    17:00 +34°C° 0,2 mm 7 m/s 746 mmHg 32%
    18:00 +33°C° 0,2 mm 7 m/s 746 mmHg 32%
    19:00 +32°C° 0,1 mm 6 m/s 747 mmHg 34%
    20:00 +30°C° 0,1 mm 6 m/s 748 mmHg 36%
    21:00 +29°C° 0,1 mm 6 m/s 748 mmHg 38%
    22:00 +29°C° 0 mm 6 m/s 749 mmHg 39%
    23:00 +28°C° 0 mm 7 m/s 749 mmHg 40%

    Mâine, 28 Iunie, Miercuri

    Timp Temperatura Precipitaţii Vânt Presiune Umiditate
    00:00 +28°C° 0 mm 7 m/s 749 mmHg 41%
    01:00 +27°C° 0 mm 7 m/s 749 mmHg 45%
    02:00 +27°C° 0 mm 7 m/s 749 mmHg 49%
    03:00 +26°C° 0 mm 7 m/s 749 mmHg 53%
    04:00 +26°C° 0 mm 7 m/s 749 mmHg 54%
    05:00 +26°C° 0 mm 7 m/s 750 mmHg 55%
    06:00 +26°C° 0 mm 7 m/s 750 mmHg 56%
    07:00 +27°C° 0 mm 8 m/s 750 mmHg 51%
    08:00 +29°C° 0 mm 8 m/s 750 mmHg 47%
    09:00 +31°C° 0 mm 8 m/s 750 mmHg 42%
    10:00 +32°C° 0 mm 9 m/s 750 mmHg 39%
    11:00 +33°C° 0 mm 9 m/s 750 mmHg 37%
    12:00 +34°C° 0 mm 10 m/s 750 mmHg 34%
    13:00 +34°C° 0 mm 9 m/s 749 mmHg 33%
    14:00 +34°C° 0 mm 9 m/s 749 mmHg 32%
    15:00 +34°C° 0 mm 9 m/s 749 mmHg 31%
    16:00 +33°C° 0 mm 9 m/s 748 mmHg 32%
    17:00 +32°C° 0 mm 9 m/s 748 mmHg 33%
    18:00 +31°C° 0 mm 8 m/s 748 mmHg 34%
    19:00 +29°C° 0 mm 7 m/s 749 mmHg 39%
    20:00 +28°C° 0 mm 7 m/s 749 mmHg 44%
    21:00 +27°C° 0 mm 6 m/s 750 mmHg 49%
    22:00 +26°C° 0 mm 6 m/s 750 mmHg 51%
    23:00 +26°C° 0 mm 6 m/s 750 mmHg 53%

    Poimâine, 29 Iunie, Joi

    Timp Temperatura Precipitaţii Vânt Presiune Umiditate
    00:00 +24°C° 0 mm 7 m/s 749 mmHg 55%
    01:00 +24°C° 0 mm 7 m/s 749 mmHg 58%
    02:00 +24°C° 0 mm 7 m/s 749 mmHg 60%
    03:00 +23°C° 0 mm 7 m/s 749 mmHg 63%
    04:00 +23°C° 0 mm 7 m/s 749 mmHg 64%
    05:00 +24°C° 0 mm 7 m/s 749 mmHg 65%
    06:00 +24°C° 0 mm 7 m/s 749 mmHg 65%
    07:00 +26°C° 0 mm 7 m/s 749 mmHg 60%
    08:00 +28°C° 0 mm 7 m/s 749 mmHg 56%
    09:00 +29°C° 0 mm 8 m/s 749 mmHg 51%
    10:00 +31°C° 0 mm 8 m/s 749 mmHg 47%
    11:00 +32°C° 0 mm 8 m/s 749 mmHg 43%
    12:00 +33°C° 0 mm 8 m/s 749 mmHg 40%
    13:00 +33°C° 0 mm 8 m/s 748 mmHg 39%
    14:00 +33°C° 0 mm 8 m/s 748 mmHg 38%
    15:00 +33°C° 0 mm 8 m/s 747 mmHg 37%
    16:00 +32°C° 0 mm 7 m/s 747 mmHg 37%
    17:00 +30°C° 0 mm 7 m/s 747 mmHg 36%
    18:00 +30°C° 0 mm 6 m/s 747 mmHg 35%
    19:00 +28°C° 0 mm 6 m/s 747 mmHg 38%
    20:00 +27°C° 0 mm 5 m/s 748 mmHg 41%
    21:00 +26°C° 0 mm 4 m/s 748 mmHg 43%
    22:00 +26°C° 0 mm 5 m/s 748 mmHg 45%
    23:00 +24°C° 0 mm 6 m/s 748 mmHg 46%

    30 Iunie, Vineri

    Timp Temperatura Precipitaţii Vânt Presiune Umiditate
    00:00 +24°C° 0 mm 6 m/s 748 mmHg 47%
    01:00 +24°C° 0 mm 6 m/s 748 mmHg 49%
    02:00 +23°C° 0 mm 7 m/s 748 mmHg 51%
    03:00 +23°C° 0 mm 7 m/s 748 mmHg 53%
    04:00 +23°C° 0 mm 7 m/s 748 mmHg 55%
    05:00 +23°C° 0 mm 6 m/s 749 mmHg 57%
    06:00 +24°C° 0 mm 6 m/s 749 mmHg 58%
    07:00 +26°C° 0 mm 7 m/s 749 mmHg 52%
    08:00 +27°C° 0 mm 7 m/s 749 mmHg 47%
    09:00 +29°C° 0 mm 7 m/s 750 mmHg 41%
    10:00 +29°C° 0 mm 7 m/s 750 mmHg 38%
    11:00 +29°C° 0 mm 7 m/s 750 mmHg 36%
    12:00 +30°C° 0 mm 7 m/s 750 mmHg 34%
    13:00 +30°C° 0 mm 7 m/s 750 mmHg 32%
    14:00 +30°C° 0 mm 7 m/s 750 mmHg 31%
    15:00 +30°C° 0 mm 7 m/s 750 mmHg 30%
    16:00 +29°C° 0 mm 6 m/s 750 mmHg 29%
    17:00 +28°C° 0 mm 6 m/s 750 mmHg 29%
    18:00 +28°C° 0 mm 5 m/s 750 mmHg 29%
    19:00 +26°C° 0 mm 4 m/s 751 mmHg 32%
    20:00 +25°C° 0 mm 4 m/s 751 mmHg 36%
    21:00 +22°C° 0 mm 3 m/s 752 mmHg 39%
    22:00 +22°C° 0 mm 3 m/s 751 mmHg 41%
    23:00 +21°C° 0 mm 2 m/s 751 mmHg 43%

    1 Iulie, Sâmbătă

    Timp Temperatura Precipitaţii Vânt Presiune Umiditate
    00:00 +21°C° 0 mm 2 m/s 751 mmHg 45%
    01:00 +21°C° 0 mm 2 m/s 751 mmHg 45%
    02:00 +20°C° 0 mm 2 m/s 751 mmHg 45%
    03:00 +20°C° 0 mm 2 m/s 750 mmHg 45%
    04:00 +21°C° 0 mm 2 m/s 751 mmHg 44%
    05:00 +23°C° 0 mm 2 m/s 751 mmHg 43%
    06:00 +23°C° 0 mm 2 m/s 751 mmHg 43%
    07:00 +25°C° 0 mm 2 m/s 752 mmHg 40%
    08:00 +27°C° 0 mm 2 m/s 752 mmHg 37%
    09:00 +28°C° 0 mm 2 m/s 752 mmHg 34%
    10:00 +29°C° 0 mm 3 m/s 752 mmHg 32%
    11:00 +32°C° 0 mm 4 m/s 752 mmHg 30%
    12:00 +33°C° 0 mm 4 m/s 752 mmHg 28%
    13:00 +33°C° 0 mm 5 m/s 752 mmHg 28%
    14:00 +33°C° 0 mm 6 m/s 752 mmHg 28%
    15:00 +34°C° 0 mm 7 m/s 752 mmHg 28%
    16:00 +33°C° 0 mm 7 m/s 752 mmHg 30%
    17:00 +32°C° 0 mm 7 m/s 752 mmHg 32%
    18:00 +31°C° 0 mm 8 m/s 752 mmHg 34%
    19:00 +28°C° 0 mm 7 m/s 753 mmHg 39%
    20:00 +27°C° 0 mm 6 m/s 753 mmHg 43%
    21:00 +26°C° 0 mm 6 m/s 754 mmHg 48%
    22:00 +25°C° 0 mm 5 m/s 754 mmHg 49%
    23:00 +23°C° 0 mm 5 m/s 754 mmHg 51%

    2 Iulie, Duminică

    Timp Temperatura Precipitaţii Vânt Presiune Umiditate
    00:00 +23°C° 0 mm 5 m/s 753 mmHg 53%
    01:00 +22°C° 0 mm 5 m/s 753 mmHg 53%
    02:00 +22°C° 0 mm 5 m/s 753 mmHg 54%
    03:00 +22°C° 0 mm 5 m/s 753 mmHg 54%
    04:00 +22°C° 0 mm 5 m/s 753 mmHg 53%
    05:00 +23°C° 0 mm 5 m/s 753 mmHg 52%
    06:00 +23°C° 0 mm 5 m/s 753 mmHg 51%
    07:00 +26°C° 0 mm 6 m/s 754 mmHg 44%
    08:00 +28°C° 0 mm 6 m/s 754 mmHg 36%
    09:00 +30°C° 0 mm 7 m/s 754 mmHg 29%
    10:00 +33°C° 0 mm 7 m/s 754 mmHg 27%
    11:00 +34°C° 0 mm 8 m/s 753 mmHg 25%
    12:00 +35°C° 0 mm 9 m/s 753 mmHg 24%
    13:00 +35°C° 0 mm 9 m/s 753 mmHg 26%
    14:00 +36°C° 0 mm 10 m/s 752 mmHg 28%
    15:00 +36°C° 0 mm 10 m/s 752 mmHg 30%
    16:00 +34°C° 0 mm 10 m/s 752 mmHg 35%
    17:00 +32°C° 0 mm 10 m/s 752 mmHg 40%
    18:00 +31°C° 0 mm 9 m/s 752 mmHg 45%
    19:00 +29°C° 0 mm 8 m/s 752 mmHg 51%
    20:00 +27°C° 0 mm 8 m/s 752 mmHg 56%
    21:00 +26°C° 0 mm 7 m/s 753 mmHg 62%
    22:00 +26°C° 0 mm 6 m/s 753 mmHg 64%
    23:00 +24°C° 0 mm 6 m/s 753 mmHg 66%
    Arată mai mult